Weather History for Delta, CO

Change the Weather History Date:

Sunday, November 24, 2013

  Actual Average (KMTJ) Record (KMTJ)
Temperature  
Mean Temperature 36 °F 34 °F  
Max Temperature 38 °F 45 °F 63 °F (1998)
Min Temperature 34 °F 22 °F 6 °F (2007)
Degree Days  
Heating Degree Days 29 31  
Month to date heating degree days 632  
Since 1 July heating degree days 1223  
Cooling Degree Days 0 0  
Month to date cooling degree days 0  
Year to date cooling degree days 643  
Moisture  
Dew Point 35 °F    
Average Humidity 96    
Maximum Humidity 99    
Minimum Humidity 91    
Precipitation  
Precipitation 0.04 in 0.03 in 0.30 in (2013)
Month to date precipitation 0.68  
Year to date precipitation 10.52  
Sea Level Pressure  
Sea Level Pressure 30.11 in    
Wind  
Wind Speed 1 mph (NNE)    
Max Wind Speed 5 mph    
Max Gust Speed -    
Visibility 5 miles    
Events Fog , Rain , Snow    
T = Trace of Precipitation, MM = Missing Value Source: NWS Daily Summary

Daily Weather History Graph

Daily Weather History Graph

Search for Another Location

Airport:

Trip Planner

Search our weather history database for the weather conditions in past years. The results will help you decide how hot, cold, wet, or windy it might be!

Date:

Astronomy

Nov. 24, 2013 Rise Set
Actual Time 7:04 AM MST 4:53 PM MST
Civil Twilight 6:35 AM MST 5:22 PM MST
Nautical Twilight 6:03 AM MST 5:54 PM MST
Astronomical Twilight 5:31 AM MST 6:26 PM MST
Moon 11:19 PM MST (11/24) 11:55 AM MST (11/24)
Length of Visible Light 10h 46m
Length of Day
9h 48m
Waning Gibbous, 60% of the Moon is Illuminated
Nov 24
Waning Gibbous
Nov 25
Last Quarter
Dec 2
New
Dec 9
First Quarter
Dec 17
Full

Hourly Weather History & Observations

Time (MST) Temp. Windchill Dew Point Humidity Pressure Visibility Wind Dir Wind Speed Gust Speed Precip Events Conditions
12:15 AM 35.2 °F - 34.7 °F 98% 30.19 in 2.5 mi Calm Calm - N/A   Overcast
12:35 AM 35.2 °F - 34.7 °F 98% 30.18 in 3.0 mi Calm Calm - N/A   Overcast
12:55 AM 34.9 °F - 34.0 °F 97% 30.18 in 3.0 mi Calm Calm - N/A   Overcast
1:15 AM 35.1 °F - 34.3 °F 97% 30.18 in 4.0 mi Calm Calm - N/A   Overcast
1:35 AM 35.2 °F 31.2 °F 34.7 °F 98% 30.18 in 4.0 mi NNE 4.6 mph - N/A   Overcast
1:55 AM 35.6 °F - 34.7 °F 97% 30.18 in 5.0 mi Calm Calm - N/A   Overcast
2:15 AM 35.6 °F - 34.9 °F 97% 30.18 in 5.0 mi Calm Calm - N/A   Overcast
2:35 AM 35.8 °F - 34.9 °F 97% 30.17 in 5.0 mi Calm Calm - N/A   Overcast
2:55 AM 35.8 °F - 34.7 °F 96% 30.16 in 7.0 mi Calm Calm - N/A   Overcast
3:15 AM 35.6 °F - 34.7 °F 97% 30.16 in 4.0 mi Calm Calm - N/A   Overcast
3:35 AM 34.9 °F 30.8 °F 34.0 °F 97% 30.17 in 0.5 mi WSW 4.6 mph - N/A Fog Fog
3:55 AM 34.7 °F - 33.8 °F 97% 30.16 in 1.0 mi Calm Calm - N/A   Overcast
4:15 AM 34.9 °F 30.8 °F 34.3 °F 98% 30.16 in 3.0 mi SW 4.6 mph - N/A   Overcast
4:35 AM 35.1 °F - 34.7 °F 99% 30.17 in 3.0 mi Calm Calm - N/A   Overcast
4:55 AM 35.6 °F 32.8 °F 35.1 °F 98% 30.16 in 5.0 mi WSW 3.5 mph - N/A   Overcast
5:15 AM 35.8 °F - 35.1 °F 97% 30.16 in 4.0 mi Calm Calm - N/A   Overcast
5:35 AM 35.1 °F 32.2 °F 34.5 °F 98% 30.16 in 1.0 mi ENE 3.5 mph - N/A Rain Light Rain
5:55 AM 34.9 °F - 34.2 °F 97% 30.16 in 2.0 mi Calm Calm - N/A Rain Light Rain
6:15 AM 35.2 °F - 34.7 °F 98% 30.15 in 3.0 mi Calm Calm - N/A   Overcast
6:35 AM 35.1 °F - 34.7 °F 99% 30.15 in 1.0 mi Calm Calm - N/A   Overcast
6:55 AM 35.1 °F - 34.7 °F 99% 30.15 in 0.8 mi Calm Calm - N/A   Overcast
7:15 AM 35.2 °F - 34.7 °F 98% 30.14 in 0.8 mi Calm Calm - N/A   Overcast
7:35 AM 35.2 °F - 34.7 °F 98% 30.14 in 0.5 mi Calm Calm - N/A   Overcast
7:55 AM 35.2 °F - 34.9 °F 99% 30.14 in 0.2 mi Calm Calm - N/A   Overcast
8:15 AM 35.6 °F - 35.4 °F 99% 30.14 in 0.8 mi Calm Calm - N/A   Overcast
8:35 AM 36.0 °F - 35.6 °F 99% 30.14 in 1.8 mi Calm Calm - N/A   Overcast
8:55 AM 35.8 °F - 35.6 °F 99% 30.15 in 0.5 mi Calm Calm - N/A Fog Fog
9:15 AM 36.1 °F - 35.8 °F 99% 30.15 in 1.0 mi Calm Calm - N/A   Overcast
9:35 AM 36.0 °F 33.3 °F 35.6 °F 99% 30.14 in 0.8 mi North 3.5 mph - N/A   Overcast
9:55 AM 36.0 °F 33.3 °F 35.6 °F 99% 30.14 in 0.8 mi North 3.5 mph - N/A Rain Light Rain
10:15 AM 36.5 °F 33.9 °F 36.0 °F 98% 30.14 in 1.2 mi ENE 3.5 mph - N/A   Overcast
10:35 AM 36.5 °F - 36.1 °F 99% 30.14 in 3.0 mi Calm Calm - N/A   Overcast
10:55 AM 36.7 °F - 36.3 °F 99% 30.14 in 3.0 mi Calm Calm - N/A   Overcast
11:15 AM 36.7 °F - 36.1 °F 98% 30.13 in 3.0 mi Calm Calm - N/A Rain Light Rain
11:35 AM 36.5 °F - 35.8 °F 97% 30.12 in 2.0 mi Calm Calm - N/A   Overcast
11:55 AM 36.7 °F - 35.8 °F 97% 30.11 in 2.5 mi Calm Calm - 0.01 in Rain Light Rain
12:15 PM 36.5 °F - 35.6 °F 97% 30.10 in 2.5 mi Calm Calm - N/A Snow Light Snow
12:35 PM 36.5 °F - 35.6 °F 97% 30.10 in 4.0 mi Calm Calm - N/A Snow Light Snow
12:55 PM 36.7 °F - 35.2 °F 95% 30.09 in 3.0 mi Calm Calm - 0.01 in Rain Light Rain
1:15 PM 37.2 °F - 35.4 °F 93% 30.08 in 5.0 mi Calm Calm - N/A Rain Light Rain
1:35 PM 37.4 °F - 35.8 °F 94% 30.07 in 5.0 mi Calm Calm - 0.01 in Rain Light Rain
1:55 PM 37.0 °F - 35.6 °F 95% 30.07 in 5.0 mi Calm Calm - 0.01 in Rain Light Rain
2:15 PM 37.0 °F 34.5 °F 35.6 °F 95% 30.07 in 5.0 mi ENE 3.5 mph - 0.01 in Rain Light Rain
2:35 PM 37.4 °F - 35.8 °F 94% 30.07 in 5.0 mi Calm Calm - 0.01 in Rain Light Rain
2:55 PM 37.0 °F - 35.6 °F 95% 30.07 in 7.0 mi Calm Calm - 0.01 in Rain Light Rain
3:15 PM 37.6 °F - 36.0 °F 94% 30.07 in 7.0 mi Calm Calm - N/A Rain Light Rain
3:35 PM 37.6 °F 35.1 °F 35.8 °F 93% 30.07 in 7.0 mi East 3.5 mph - N/A Rain Light Rain
3:55 PM 37.8 °F - 35.8 °F 93% 30.07 in 10.0 mi Calm Calm - N/A   Overcast
4:15 PM 37.9 °F - 35.8 °F 92% 30.07 in 10.0 mi Calm Calm - N/A   Overcast
4:35 PM 37.9 °F 35.5 °F 35.8 °F 92% 30.06 in 10.0 mi ENE 3.5 mph - N/A   Overcast
4:55 PM 38.1 °F - 36.0 °F 92% 30.06 in 10.0 mi Calm Calm - N/A   Overcast
5:15 PM 37.8 °F - 36.0 °F 93% 30.06 in 10.0 mi Calm Calm - N/A   Overcast
5:35 PM 38.1 °F - 36.0 °F 92% 30.07 in 10.0 mi Calm Calm - N/A   Overcast
5:55 PM 38.3 °F - 36.0 °F 91% 30.06 in 10.0 mi Calm Calm - N/A   Overcast
6:15 PM 37.9 °F - 35.8 °F 92% 30.07 in 10.0 mi Calm Calm - N/A   Overcast
6:35 PM 38.3 °F - 36.5 °F 93% 30.06 in 10.0 mi Calm Calm - N/A   Overcast
6:55 PM 37.6 °F - 36.1 °F 95% 30.06 in 10.0 mi Calm Calm - N/A   Overcast
7:15 PM 37.8 °F - 36.5 °F 95% 30.06 in 10.0 mi Calm Calm - N/A   Overcast
7:35 PM 37.6 °F - 36.1 °F 95% 30.06 in 10.0 mi Calm Calm - N/A   Overcast
7:55 PM 37.9 °F - 36.3 °F 94% 30.06 in 10.0 mi Calm Calm - N/A   Overcast
8:15 PM 37.8 °F - 36.1 °F 94% 30.07 in 10.0 mi Calm Calm - N/A   Overcast
8:35 PM 37.8 °F 35.3 °F 36.5 °F 95% 30.07 in 10.0 mi West 3.5 mph - N/A   Overcast
8:55 PM 37.6 °F 35.1 °F 36.5 °F 96% 30.07 in 10.0 mi SSW 3.5 mph - N/A   Overcast
9:15 PM 37.6 °F - 36.5 °F 96% 30.06 in 10.0 mi Calm Calm - N/A   Overcast
9:35 PM 37.4 °F 34.9 °F 36.0 °F 95% 30.07 in 10.0 mi East 3.5 mph - N/A   Overcast
9:55 PM 36.9 °F 34.3 °F 35.8 °F 96% 30.07 in 7.0 mi NE 3.5 mph - N/A   Overcast
10:15 PM 36.9 °F - 35.8 °F 96% 30.07 in 7.0 mi Calm Calm - N/A   Overcast
10:35 PM 37.0 °F - 36.0 °F 96% 30.07 in 7.0 mi Calm Calm - N/A   Overcast
10:55 PM 36.7 °F - 35.6 °F 96% 30.08 in 7.0 mi Calm Calm - N/A   Overcast
11:15 PM 36.7 °F 34.1 °F 35.4 °F 95% 30.09 in 10.0 mi North 3.5 mph - N/A   Overcast
11:35 PM 36.9 °F 33.1 °F 35.1 °F 93% 30.08 in 10.0 mi North 4.6 mph - N/A   Overcast
11:55 PM 36.5 °F 33.9 °F 34.7 °F 93% 30.08 in 10.0 mi NNE 3.5 mph - N/A   Mostly Cloudy